Regional Weather Roundup
Issued by NWS Wilmington, NC

Home | Current Version | Previous Version | Text Only | Print | Product List | Glossary On
Versions: 1 2 3 4 5 6 7 8 9 10 11 12 13 14 15 16 17 18 19 20 21 22 23 24 25 26 27 28 29 30 31 32 33 34 35 36 37 38 39 40 41 42 43 44 45 46 47 48 49 50
000
ASUS42 KILM 260310
RWRILM
RWRILM
REGIONAL HOURLY WEATHER ROUNDUP
NATIONAL WEATHER SERVICE WILMINGTON NC
1100 PM EDT FRI JUL 25 2014

NOTE: "FAIR" INDICATES FEW OR NO CLOUDS BELOW 12,000 FEET WITH NO
SIGNIFICANT WEATHER AND/OR OBSTRUCTIONS TO VISIBILITY.

...............WFO WILMINGTON COUNTY WARNING AREA...............

......COASTAL NC AND SC COUNTIES......

CITY           SKY/WX    TMP DP  RH WIND       PRES   REMARKS
WILMINGTON     PTCLDY    77  74  90 CALM      30.04R
SOUTHPORT      PTCLDY    76  74  93 CALM      30.03F
N MYRTLE BEACH CLOUDY    78  75  90 W6        30.05R
MYRTLE BEACH   MOCLDY    75  72  88 W5        30.06R

......INLAND NC AND SC COUNTIES.......

CITY           SKY/WX    TMP DP  RH WIND       PRES   REMARKS
LUMBERTON      CLOUDY    77  74  90 SE8       30.04R
ELIZABETHTOWN  CLOUDY    77  75  95 CALM      30.05R
WHITEVILLE     MOCLDY    76  74  92 CALM      30.04S
FLORENCE       PTCLDY    75  72  90 CALM      30.04R
DARLINGTON     MOCLDY    75  72  88 SE7       30.05S

....................REST OF NORTH CAROLINA......................

.........EASTERN NC.........

CITY           SKY/WX    TMP DP  RH WIND       PRES   REMARKS
CAPE HATTERAS  PTCLDY    73  68  84 NE5       30.06S
JACKSONVILLE   PTCLDY    73  70  88 CALM      30.04F
MOREHEAD CITY  MOCLDY    78  71  79 CALM      30.04F
KENANSVILLE    PTCLDY    72  71  95 CALM      30.05F
NEW BERN       MOCLDY    76  72  87 E3        30.05F
ELIZABETH CITY CLEAR     72  60  66 SE3       30.06S

.........CENTRAL NC.........

CITY           SKY/WX    TMP DP  RH WIND       PRES   REMARKS
RALEIGH DURHAM PTCLDY    73  67  81 SE5       30.04S
ROCKY MOUNT    CLEAR     73  69  87 CALM      30.04S
ROANOKE RAPIDS NOT AVBL
FAYETTEVILLE   CLOUDY    77  72  84 SE6       30.04R
HOFFMAN        PTCLDY    74  71  88 SE2       30.06R

.........WESTERN NC.........

CITY           SKY/WX    TMP DP  RH WIND       PRES   REMARKS
CHARLOTTE      PTCLDY    75  70  84 S6        30.04R
GREENSBORO     PTCLDY    74  67  78 SE8       30.04S
HICKORY        NOT AVBL
BOONE          NOT AVBL
ASHEVILLE      NOT AVBL

.....................REST OF SOUTH CAROLINA.....................

.........EASTERN SC.........

CITY           SKY/WX    TMP DP  RH WIND       PRES   REMARKS
CHARLESTON     CLOUDY    76  72  87 SW5       30.03F
BEAUFORT MCAS  CLOUDY    73  68  84 NW16G29   30.05R THUNDER
HILTON HEAD    NOT AVBL

.........CENTRAL SC.........

CITY           SKY/WX    TMP DP  RH WIND       PRES   REMARKS
COLUMBIA       PTCLDY    78  71  79 S3        30.01S
ORANGEBURG     MOCLDY    74  72  93 SE6       30.04R
SUMTER SHAW    PTCLDY    76  75  96 SE5       30.01S

.........WESTERN SC.........

CITY           SKY/WX    TMP DP  RH WIND       PRES   REMARKS
GREENVILLE     NOT AVBL
ROCK HILL      CLEAR     75  71  87 S3        30.04S
ANDERSON       CLEAR     74  69  85 E3        30.02R
CLEMSON        NOT AVBL
GREENWOOD      CLEAR     76  69  79 SE5       30.03S


...................COASTAL AND OFFSHORE REPORTS..................

................LOCAL PIERS AND NC RESERVE................


STATION/POSITION TIME  SKY/WX   TEMP    WIND        PRES    VSBY
                                AIR SEA DIR/SP/G
                 (UTC)          (F)     (DEG/KT/KT) (MB)    (MI)
JOHNY MRCER PIER 0300               83              1016.8R
NC RESRV MASNBRO 0200            79      70/  2     1016.0S
OCEAN CREST PIER 0300            78 84   30/  4/  5 1016.3R
SPRINGMAID  PIER 0300               84              1017.6F


................COASTAL AND OFFSHORE BUOYS................


STATION/POSITION TIME  SKY/WX   TEMP    WIND        PRES    VSBY
                                AIR SEA DIR/SP/G
                 (UTC)          (F)     (DEG/KT/KT) (MB)    (MI)
DIMNDSHOAL 41025 0300                   VRB 10/ 14  1017.7R
WVE H/P(F/S)=  3/ 6 WND WVE H/P(F/S)=  2/ 5 SWL H/P/D(F/S/D)=  2/140/ 6

CAPE LOOKOUT     0200            79      90/ 10/ 10 1017.1R
ONSLOW BAY 41036 0300            80 81   80/ 10/ 12 1017.4R
WVE H/P(F/S)=  3/ 6 WND WVE H/P(F/S)=  2/ 4 SWL H/P/D(F/S/D)=  3/190/ 6

5 WRITEBCH 41038 0200            77 81  120/  8/ 10   N/A
MASONBORO  41110 0300               81                N/A
WVE H/P(F/S)=  3/ 6 WND WVE H/P(F/S)=  3/ 6

WILM HARBR 41108 NOT AVBL
27WRITEBCH 41037 0200            77 81   70/  6/  8 1017.0R
FRYING PAN 41013 NOT AVBL
SUNST NRSH 41024 0200            81     130/  6/  8 1016.7R
CAPRS NRSH 41029 0200            78     310/ 14/ 16   N/A
EDISTO     41004 0300            83 83  250/ 12/ 14 1016.4R
WVE H/P(F/S)=  3/ 5 WND WVE H/P(F/S)=  3/ 5 SWL H/P/D(F/S/D)=  2/ 8



..........OFFSHORE BUOYS BEYOND 100 NM OFFSHORE...........
.....IN A TRIANGLE---HAT TO BERMUDA TO BAHAMAS TO HAT.....


STATION/POSITION TIME  SKY/WX   TEMP    WIND        PRES    VSBY
                                AIR SEA DIR/SP/G
                 (UTC)          (F)     (DEG/KT/KT) (MB)    (MI)
150E HAT   41001 NOT AVBL
W BERMUDA  41048 0244            82 82  210/ 12/ 14 1019.4S
WVE H/P(F/S)=  5/ 7 WND WVE H/P(F/S)=  3/ 5 SWL H/P/D(F/S/D)=  3/250/ 7

ATLANTIC S 41049 0233            82 83  110/  6/  8 1023.1R
WVE H/P(F/S)=  3/ 8 WND WVE H/P(F/S)=  2/ 4 SWL H/P/D(F/S/D)=  3/130/ 8

E BAHAMAS  41046 0216            83 84  110/ 10/ 14 1020.7R
WVE H/P(F/S)=  5/ 7 WND WVE H/P(F/S)=  2/ 4 SWL H/P/D(F/S/D)=  5/120/ 7

NE BAHAMAS 41047 0246            83 85  170/  6/  8 1021.4R
WVE H/P(F/S)=  3/ 8 WND WVE H/P(F/S)=  2/ 4 SWL H/P/D(F/S/D)=  3/130/ 8

120E CANVRL41010 0300            83 84  170/ 12/ 14 1018.5F
WVE H/P(F/S)=  2/ 8 WND WVE H/P(F/S)=  2/ 4 SWL H/P/D(F/S/D)=  2/130/ 8


END


USA.gov is the U.S. government's official web portal to all federal, state and local government web resources and services.